Inquirer Daily News

Weather

Get conditions and forecasts for any City, State, ZIP code or Country:  
Trenton, NJ
on Tuesday, December 25, 2012

Tuesday
Previous Day Next Day
Daily Summary
 ActualAverageRecord
Temperature
Mean Temperature °F 33°F  
Max Temperature 40°F 41°F 69°F (1889)
Min Temperature 31°F 25°F -2°F (1983)
Degree Days
Heating Degree Days 29 32  
Month to date heating degree days 560 721  
Since 1 July heating degree days 1567 1697  
Cooling Degree Days 0 0  
Month to date cooling degree days 0 0  
Year to date cooling degree days 1234 965  
Moisture
Dew Point 31°F   
Average Humidity 82    
Maximum Humidity 100    
Minimum Humidity 64    
Precipitation
Precipitation 0.01 in 0.11 in 1.10 in (1986)
Month to date precipitation 2.88 3.19  
Year to date precipitation 36.11 45.93  
Wind
Wind Speed 7 mph   
Max Wind Speed 16 mph   
Max Gust Speed 22 mph   
Visibility 7 miles   
Events Rain   

Key: T is trace of precipitation, MM is missing value
Source: NWS Daily Summary
Time(EST)TemperatureDew PointHumidity Pressure Visibility Wind DirectionWind SpeedGust SpeedPrecipitationEvents Conditions
12:14 AM 33.8°F 33.8°F 100% 29.89 in 3.0 miles ENE 4.6 mph - 0.00 in Rain Light Rain
12:53 AM 34.0°F 33.1°F 96% 29.88 in 2.5 miles NE 5.8 mph - 0.00 in Rain Light Rain
1:18 AM 33.8°F 33.8°F 100% 29.89 in 3.0 miles NE 5.8 mph - 0.01 in   Overcast
1:53 AM 34.0°F 33.1°F 96% 29.88 in 2.5 miles NE 3.5 mph - 0.01 in   Overcast
2:08 AM 33.8°F 33.8°F 100% 29.90 in 3.0 miles NNE 3.5 mph - N/A   Overcast
2:53 AM 34.0°F 33.1°F 96% 29.91 in 4.0 miles Calm Calm - N/A   Overcast
3:27 AM 33.8°F 33.8°F 100% 29.91 in 3.0 miles North 4.6 mph - N/A   Overcast
3:35 AM 33.8°F 33.8°F 100% 29.91 in 3.0 miles Calm Calm - N/A   Overcast
3:53 AM 34.0°F 33.1°F 96% 29.91 in 4.0 miles North 5.8 mph - N/A   Overcast
4:53 AM 34.0°F 33.1°F 96% 29.92 in 3.0 miles North 3.5 mph - N/A   Overcast
5:23 AM 33.8°F 33.8°F 100% 29.94 in 4.0 miles NNW 5.8 mph - N/A   Overcast
5:48 AM 33.8°F 33.8°F 100% 29.96 in 3.0 miles NNW 4.6 mph - N/A   Overcast
5:53 AM 34.0°F 33.1°F 96% 29.96 in 3.0 miles NNW 4.6 mph - N/A   Overcast
6:37 AM 33.8°F 33.8°F 100% 29.98 in 5.0 miles NNW 4.6 mph - N/A   Overcast
6:48 AM 35.6°F 33.8°F 93% 29.98 in 5.0 miles NNW 5.8 mph - N/A   Overcast
6:53 AM 35.1°F 33.1°F 92% 29.97 in 5.0 miles NW 4.6 mph - N/A   Overcast
7:34 AM 35.6°F 32.0°F 87% 30.01 in 6.0 miles NNW 5.8 mph - N/A   Overcast
7:53 AM 34.0°F 32.0°F 92% 30.00 in 6.0 miles NNW 4.6 mph - N/A   Scattered Clouds
8:53 AM 35.1°F 33.1°F 92% 30.03 in 7.0 miles NW 6.9 mph - N/A   Clear
9:53 AM 37.9°F 33.1°F 83% 30.08 in 9.0 miles NW 11.5 mph - N/A   Clear
10:53 AM 39.9°F 32.0°F 73% 30.07 in 10.0 miles North 9.2 mph - N/A   Scattered Clouds
11:00 AM 39.2°F 32.0°F 75% 30.09 in 10.0 miles North 6.9 mph - N/A   Mostly Cloudy
11:53 AM 39.0°F 32.0°F 76% 30.05 in 10.0 miles North 10.4 mph - N/A   Overcast
12:53 PM 39.0°F 30.9°F 73% 30.08 in 10.0 miles NNW 9.2 mph - N/A   Overcast
1:53 PM 39.9°F 30.9°F 70% 30.08 in 10.0 miles NNW 9.2 mph 17.3 mph N/A   Overcast
2:53 PM 39.9°F 30.0°F 68% 30.08 in 10.0 miles North 12.7 mph - N/A   Overcast
3:53 PM 39.0°F 28.9°F 67% 30.11 in 10.0 miles North 8.1 mph - N/A   Overcast
4:53 PM 37.9°F 28.0°F 68% 30.13 in 10.0 miles North 6.9 mph - N/A   Overcast
5:53 PM 37.9°F 28.0°F 68% 30.17 in 10.0 miles North 6.9 mph - N/A   Overcast
6:53 PM 37.0°F 26.1°F 65% 30.18 in 10.0 miles NNE 9.2 mph - N/A   Overcast
7:53 PM 36.0°F 26.1°F 67% 30.21 in 10.0 miles NNE 6.9 mph - N/A   Overcast
8:53 PM 35.1°F 25.0°F 67% 30.22 in 10.0 miles NNE 6.9 mph - N/A   Overcast
9:53 PM 35.1°F 24.1°F 64% 30.23 in 10.0 miles NNE 5.8 mph - N/A   Overcast
10:53 PM 33.1°F 24.1°F 70% 30.24 in 10.0 miles North 4.6 mph - N/A   Scattered Clouds
11:53 PM 32.0°F 24.1°F 73% 30.23 in 10.0 miles North 4.6 mph - N/A   Clear
Astronomy
Sunrise:07:20 AM (EST) Moon Rise:02:45 PM (EST)12/25
Sunset:04:38 PM (EST) Moon Set:04:50 AM (EST)12/25
Moon Phase
Dec. 25 Dec. 28 Jan. 04 Jan. 11 Jan. 18

Copyright © 2014 The Weather Underground, Inc.